Change the Weather History Date:

Saturday, October 27, 2012

  Actual Average Record
Temperature  
Mean Temperature 44 °F -  
Max Temperature 52 °F 44 °F 62 °F (2003)
Min Temperature 35 °F 31 °F 24 °F (1998)
Degree Days  
Heating Degree Days 22    
Moisture  
Dew Point 44 °F    
Average Humidity 94    
Maximum Humidity 100    
Minimum Humidity 71    
Precipitation  
Precipitation T in 0.16 in - ()
Sea Level Pressure  
Sea Level Pressure 30.13 in    
Wind  
Wind Speed 9 mph ()    
Max Wind Speed 18 mph    
Max Gust Speed 23 mph    
Visibility 11.3 miles    
Events Rain    
Averages and records for this station are not official NWS values.
T = Trace of Precipitation, MM = Missing Value Source: Averaged Metar Reports

Daily Weather History Graph

Daily Weather History Graph

Search for Another Location

Airport or City:

Trip Planner

Search our weather history database for the weather conditions in past years. The results will help you decide how hot, cold, wet, or windy it might be!

Date:

Astronomy

Oct. 27, 2012 Rise Set
Actual Time 7:47 AM ADT 6:04 PM ADT
Civil Twilight 7:16 AM ADT 6:35 PM ADT
Nautical Twilight 6:40 AM ADT 7:11 PM ADT
Astronomical Twilight 6:05 AM ADT 7:45 PM ADT
Moon 4:52 PM ADT (10/27) 5:32 AM ADT (10/27)
Length of Visible Light 11h 19m
Length of Day
10h 17m
Waxing Gibbous, 95% of the Moon is Illuminated
Oct 27
Waxing Gibbous
Oct 29
Full
Nov 6
Last Quarter
Nov 13
New
Nov 20
First Quarter

Hourly Weather History & Observations

Time (ADT) Temp. Windchill Dew Point Humidity Pressure Visibility Wind Dir Wind Speed Gust Speed Precip Events Conditions
12:00 AM 37.4 °F 33.8 °F 35.6 °F 93% 30.14 in 15.0 mi NNW 4.6 mph - N/A   Clear
1:00 AM 39.2 °F 35.9 °F 35.6 °F 87% 30.13 in 15.0 mi North 4.6 mph - N/A   Clear
3:00 AM 40 °F - 37 °F 86% 30.12 in 15 mi NNW 5.8 mph - -  
4:00 AM 39.2 °F 35.0 °F 37.4 °F 93% 30.12 in 15.0 mi NNW 5.8 mph - N/A   Clear
6:00 AM 39.2 °F 35.0 °F 39.2 °F 100% 30.12 in 15.0 mi NNW 5.8 mph - N/A   Clear
7:00 AM 39.2 °F 35.9 °F 39.2 °F 100% 30.13 in 15.0 mi NNW 4.6 mph - N/A   Clear
8:00 AM 41.0 °F 36.4 °F 41.0 °F 100% 30.14 in 15.0 mi NNW 6.9 mph - N/A   Clear
9:00 AM 45 °F - 42 °F 87% 30.14 in 15 mi North 6.9 mph - -  
9:00 AM 44.6 °F 40.7 °F 42.8 °F 93% 30.14 in 15.0 mi North 6.9 mph - N/A   Clear
10:00 AM 50.0 °F - 44.6 °F 82% 30.16 in 15.0 mi North 11.5 mph 18.4 mph N/A   Partly Cloudy
11:00 AM 51.8 °F - 42.8 °F 71% 30.15 in 15.0 mi North 12.7 mph 20.7 mph N/A   Partly Cloudy
12:00 PM 51.8 °F - 44.6 °F 76% 30.14 in 15.0 mi North 17.3 mph 23.0 mph N/A   Partly Cloudy
1:00 PM 51.8 °F - 46.4 °F 82% 30.13 in 15.0 mi NNE 18.4 mph - N/A   Mostly Cloudy
2:00 PM 48.2 °F - 46.4 °F 93% 30.13 in 15.0 mi NNE 15.0 mph 23.0 mph N/A   Mostly Cloudy
2:25 PM 48.2 °F - 46.4 °F 93% 30.12 in 15.0 mi North 12.7 mph - N/A   Mostly Cloudy
3:00 PM 48 °F - 46 °F 89% 30.12 in 15 mi NNE 13.8 mph - -   Overcast
3:00 PM 48.2 °F - 46.4 °F 93% 30.12 in 15.0 mi NNE 15.0 mph - N/A   Overcast
3:24 PM 48.2 °F - 46.4 °F 93% 30.12 in 15.0 mi North 11.5 mph 19.6 mph N/A   Overcast
4:00 PM 48.2 °F - 46.4 °F 93% 30.12 in 15.0 mi NNE 12.7 mph - N/A   Overcast
4:21 PM 48.2 °F - 46.4 °F 93% 30.12 in 15.0 mi NNE 12.7 mph - N/A   Overcast
5:00 PM 48.2 °F - 46.4 °F 93% 30.12 in 15.0 mi NNE 16.1 mph - N/A   Overcast
5:22 PM 46.4 °F 40.4 °F 46.4 °F 100% 30.12 in 12.0 mi NNE 13.8 mph - N/A   Overcast
5:48 PM 46.4 °F 40.7 °F 46.4 °F 100% 30.12 in 10.0 mi North 12.7 mph - N/A   Overcast
6:00 PM 46.4 °F 41.5 °F 46.4 °F 100% 30.14 in 8.0 mi North 10.4 mph - N/A   Overcast
6:16 PM 46.4 °F 41.1 °F 46.4 °F 100% 30.14 in 5.0 mi North 11.5 mph - N/A   Overcast
6:44 PM 46.4 °F 40.7 °F 46.4 °F 100% 30.15 in 3.0 mi North 12.7 mph - N/A   Light Drizzle
7:00 PM 44.6 °F 39.2 °F 44.6 °F 100% 30.15 in 3.0 mi North 10.4 mph - N/A   Light Drizzle
8:00 PM 44.6 °F 37.4 °F 44.6 °F 100% 30.15 in 3.0 mi North 16.1 mph - N/A   Light Drizzle
9:00 PM 45 °F - 45 °F 98% 30.15 in 3 mi NNE 16.1 mph - - Rain Light Drizzle
9:00 PM 44.6 °F 37.4 °F 44.6 °F 100% 30.15 in 3.0 mi North 16.1 mph - N/A   Light Drizzle
9:32 PM 44.6 °F 38.4 °F 44.6 °F 100% 30.15 in 1.0 mi NNE 12.7 mph 19.6 mph N/A   Light Drizzle
10:00 PM 44.6 °F 37.8 °F 44.6 °F 100% 30.15 in 3.0 mi NNE 15.0 mph - N/A   Light Drizzle
11:00 PM 46.4 °F 41.1 °F 46.4 °F 100% 30.15 in 3.0 mi NNE 11.5 mph 19.6 mph N/A   Light Drizzle